Flag for Germany Weather past 2 weeks in Bad Nauheim, Hesse, Germany

Now
44 °F

Sunny.


Feels Like: 42 °F
Forecast: 40 / 65 °F
Wind: 3 mph from Southwest

Location: Giessen

Current Time: Aug 20, 2014 at 7:25:17 AM

Latest Report: Aug 20, 2014 at 7:00 AM


Visibility: 5 mi

Pressure: 30.04 "Hg

Humidity: 95%

Dew point: 43 °F

Location of Bad NauheimLocation

Historic Weather in Bad Nauheim — Graph

°F

Bad Nauheim temperature yesterday

Maximum temperature yesterday: 68 °F (at 3:00 PM)
Minimum temperature yesterday: 45 °F (at 6:00 AM)
Average temperature yesterday: 54 °F

Past Weeks' High & Low Weather Summary

 TemperatureHumidityPressure
High81 °F (Aug 8, 4:00 PM)99% (Aug 6, 6:00 AM)30.13 "Hg (Aug 6, 6:00 AM)
Low44 °F (Aug 20, 6:00 AM)38% (Aug 12, 5:00 PM)29.65 "Hg (Aug 13, 5:00 PM)
Average61 °F78%29.90 "Hg
* Reported Aug 5 6:00 AM — Aug 20 6:00 AM, Bad Nauheim, Weather by CustomWeather, © 2014

Note: Actual official high and low records may vary slightly from our data, if they occured in-between our weather recording intervals... More about our weather records

Advertising

Bad Nauheim weather history for previous 24 hours

 ConditionsComfort  
Time TempWeatherWind HumidityBarometerVisibility
6:00 AM
Aug 20
44 °FClear.1 mph94%30.03 "Hg6 mi
5:00 AM45 °FClear.1 mph94%30.02 "Hg11 mi
4:00 AM45 °FClear.2 mph93%30.01 "Hg10 mi
3:00 AM46 °FPassing clouds.3 mph92%30.00 "Hg14 mi
2:00 AM46 °FOvercast.3 mph93%30.00 "Hg12 mi
1:00 AM45 °FOvercast.3 mph95%30.00 "Hg5 mi
12:00 AM47 °FPassing clouds.2 mph90%29.99 "Hg19 mi
11:00 PM
Aug 19
50 °FPassing clouds.1 mph83%29.98 "Hg25 mi
10:00 PM53 °FOvercast.2 mph83%29.96 "Hg25 mi
9:00 PM53 °FPassing clouds.2 mph86%29.93 "Hg13 mi
8:00 PM56 °FOvercast.3 mph78%29.91 "Hg22 mi
7:00 PM55 °FOvercast.5 mph79%29.90 "Hg25 mi
6:00 PM56 °FOvercast.5 mph77%29.90 "Hg31 mi
5:00 PM55 °FOvercast.7 mph77%29.90 "Hg25 mi
4:00 PM57 °FDrizzle. Overcast.8 mph85%29.85 "Hg17 mi
3:00 PM68 °FPartly sunny.13 mph44%29.81 "Hg6 mi
2:00 PM67 °FOvercast.10 mph48%29.82 "Hg7 mi
1:00 PM65 °FOvercast.8 mph54%29.83 "Hg25 mi
12:00 PM64 °FPartly sunny.7 mph63%29.84 "Hg18 mi
11:00 AM60 °FPartly sunny.6 mph71%29.86 "Hg19 mi
10:00 AM57 °FPartly sunny.1 mph88%29.87 "Hg14 mi
9:00 AM51 °FLow clouds.2 mph98%29.89 "Hg7 mi
8:00 AM48 °FLow clouds.1 mph98%29.89 "Hg0 mi
7:00 AM45 °FScattered clouds.1 mph97%29.88 "Hg0 mi
Weather by CustomWeather, © 2014

See weather overviewHow to use our weather pages